Location: Treviso
(45.6669°N, 12.2430°E)
Time: 10:17:59
(UTC+02:00)

CUBESAT XI-V - Pass Details

Date: 30 April 2019
Orbit: 668 x 694 km, 98.0° (Epoch: 18 May)

Event Time Altitude Azimuth Distance (km) Brightness Sun altitude
Exits shadow 04:08:27 28° 198° (SSW) 1,269 ? -17.3°
Maximum altitude 04:10:37 51° 260° (W) 858 ? -17.0°
Drops below altitude 10° 04:15:10 10° 337° (NNW) 2,132 ? -16.4°
Sets 04:17:28 0° 343° (NNW) 3,048 ? -16.1°
